Temp
3 3 3 3 3 3 2 2 2 2 1 1 1 1 1 2 2 2 1 1 1 1 2 2 3 2 2 2 2 2 2 2 2 2 1 1 1 1 1 1 1 1 1 1 1 1 1 1 1 1 1 1 1 1 1 1 1 1 2 2 2 2 2 2 2 2 3 3 3 3 3 3 3 2 2 3 3 3 3 3 3 3 3 3 3 3
3 3 2 2 2 2 2 1 1 2 1 1 1 1 1 2 2 1 1 1 1 1 1 2 2 2 2 2 2 1 1 1 1 1 1 1 1 1 1 1 1 1 1 1 1 1 1 1 1 1 1 1 1 1 1 1 1 1 1 1 1 2 2 2 2 2 2 2 2 2 2 2 2 2 2 2 2 3 3 3 3 3 3 3 3 3
2 2 2 2 2 2 2 1 1 1 1 1 1 1 1 1 2 2 1 1 1 1 1 1 2 2 2 2 1 1 1 1 1 1 1 1 1 1 1 1 1 1 0 0 0 0 0 0 0 0 0 0 1 1 1 1 1 1 1 1 1 1 1 1 1 1 2 2 2 2 2 2 2 2 2 2 2 2 2 2 2 2 2 2 2 3
2 2 2 2 2 2 2 2 2 1 1 1 1 1 1 1 2 2 2 2 1 1 1 1 1 1 1 1 1 1 1 1 1 1 1 1 1 1 1 1 0 0 0 0 0 0 0 0 -0 -0 -0 -0 0 0 0 1 1 1 1 1 1 1 1 1 1 1 1 1 1 1 1 1 2 2 2 2 2 2 2 2 2 2 2 2 2 2
2 2 2 2 2 1 1 1 1 1 1 1 1 1 1 1 2 2 2 2 2 1 1 1 1 1 1 1 1 1 1 1 1 1 1 1 1 1 0 0 0 0 0 0 0 -0 -0 -0 -0 -0 -0 -0 -0 -0 -0 -0 0 0 1 1 1 1 1 1 1 1 1 1 1 1 1 1 1 1 1 1 1 1 2 2 2 2 2 2 2 2
2 2 2 2 2 1 1 1 1 1 1 1 1 1 1 1 2 2 2 2 2 1 1 1 1 1 1 1 1 1 1 1 1 1 1 1 0 0 0 0 0 -0 -0 -0 -0 -0 -0 -0 -0 -0 -0 -1 -1 -1 -1 -0 -0 -0 -0 0 0 0 0 0 0 0 0 0 1 1 1 1 1 1 1 1 1 1 1 1 1 1 1 2 2 2
2 2 2 2 2 1 1 1 1 1 1 1 1 1 1 1 1 2 2 2 1 1 1 1 1 1 1 1 1 1 1 1 1 1 0 0 0 -0 -0 -0 -0 -0 -0 -0 -0 -1 -1 -1 -1 -1 -1 -1 -1 -1 -1 -1 -1 -0 -0 -0 -0 0 0 0 0 0 0 0 0 0 0 0 0 0 0 1 1 1 1 1 1 1 1 1 1 2
1 1 2 2 2 1 1 1 1 1 1 1 1 1 1 1 1 1 2 2 1 1 1 1 1 1 1 1 0 0 0 0 0 0 -0 -0 -0 -0 -0 -0 -0 -1 -1 -1 -1 -1 -1 -1 -1 -1 -1 -1 -1 -1 -1 -1 -1 -1 -1 -1 -1 -0 -0 -0 -0 -0 -0 -0 0 0 0 0 0 0 0 0 0 0 0 0 1 1 1 1 1 1
2 1 1 1 1 1 1 1 1 1 1 1 1 1 1 1 1 1 1 1 1 1 1 1 1 1 1 0 0 0 0 0 0 -0 -0 -0 -0 -0 -0 -0 -1 -1 -1 -1 -1 -1 -1 -1 -1 -1 -1 -1 -1 -1 -1 -1 -1 -1 -1 -1 -1 -1 -1 -1 -1 -1 -1 -0 -0 -0 -0 -0 -0 -0 -0 0 0 0 0 0 0 0 1 1 1 1
2 2 1 1 1 1 1 1 1 1 1 1 2 2 1 1 1 1 1 1 1 1 1 1 1 1 1 0 0 0 0 0 0 -0 -0 -0 -0 -0 -0 -1 -1 -1 -1 -1 -1 -1 -1 -1 -1 -1 -1 -2 -2 -1 -1 -1 -1 -1 -1 -1 -1 -1 -1 -1 -1 -1 -1 -1 -1 -1 -0 -0 -0 -0 -0 -0 -0 -0 -0 -0 0 0 0 0 1 1
2 2 1 1 1 1 1 1 1 1 1 1 1 2 2 1 1 1 1 1 1 1 1 1 1 1 1 0 0 0 0 0 0 -0 -0 -0 -0 -1 -1 -1 -1 -1 -1 -1 -1 -1 -1 -1 -2 -2 -2 -2 -2 -2 -2 -2 -2 -2 -2 -2 -2 -2 -1 -1 -1 -1 -1 -1 -1 -1 -1 -1 -1 -1 -0 -0 -0 -0 -0 -0 -0 -0 0 0 0 1
1 1 1 1 1 1 1 1 1 1 1 1 1 1 1 1 1 1 1 1 1 1 1 1 1 1 1 0 0 0 -0 -0 -0 -0 -0 -1 -1 -1 -1 -1 -1 -1 -1 -1 -1 -1 -1 -1 -2 -2 -2 -2 -2 -2 -2 -2 -2 -2 -2 -2 -2 -2 -2 -2 -2 -2 -1 -1 -1 -1 -1 -1 -1 -1 -1 -1 -0 -0 -0 -0 -0 -0 -0 -0 0 1
1 1 1 1 1 1 1 1 1 1 1 1 1 1 1 1 1 1 1 1 0 0 0 0 0 0 0 0 0 -0 -0 -0 -0 -1 -1 -1 -1 -1 -1 -1 -1 -1 -1 -1 -1 -1 -1 -1 -1 -2 -2 -2 -2 -2 -2 -2 -2 -2 -2 -2 -2 -2 -2 -2 -2 -2 -2 -2 -1 -1 -1 -1 -1 -1 -1 -1 -1 -0 -0 -0 -0 -0 -0 -0 -0 0
2 1 1 1 1 1 1 1 1 1 1 1 1 1 1 1 1 1 1 0 0 0 -0 -0 -0 -0 -0 -0 -0 -0 -1 -1 -1 -1 -1 -1 -1 -1 -1 -1 -1 -1 -1 -1 -2 -2 -1 -1 -2 -2 -2 -2 -2 -2 -2 -2 -2 -2 -2 -2 -2 -2 -2 -2 -2 -2 -2 -2 -2 -1 -1 -1 -1 -1 -1 -1 -1 -1 -1 -1 -1 -1 -1 -0 -0 0
2 2 1 1 1 1 1 1 1 1 1 1 1 1 1 1 1 1 1 0 0 -0 -0 -0 -0 -0 -0 -0 -1 -1 -1 -1 -1 -1 -1 -1 -1 -1 -1 -1 -1 -1 -1 -2 -2 -2 -2 -2 -2 -2 -2 -2 -2 -2 -2 -2 -2 -2 -2 -2 -2 -2 -2 -2 -2 -2 -2 -2 -2 -2 -1 -1 -1 -1 -1 -1 -1 -1 -1 -1 -1 -1 -1 -1 -1 -0
2 2 2 1 1 1 1 1 1 1 1 1 1 1 0 0 0 0 0 0 0 -0 -0 -0 -0 -0 -1 -1 -1 -1 -1 -1 -1 -1 -1 -1 -1 -2 -1 -1 -1 -1 -2 -2 -2 -2 -2 -2 -2 -2 -2 -2 -2 -3 -3 -3 -2 -2 -2 -2 -2 -2 -2 -2 -2 -2 -2 -2 -2 -2 -2 -1 -1 -1 -1 -1 -1 -1 -1 -1 -1 -1 -1 -1 -1 -1
2 2 2 2 1 1 1 1 1 1 1 0 0 0 0 0 0 0 0 -0 -0 -0 -1 -1 -0 -0 -1 -1 -2 -2 -2 -2 -1 -1 -1 -1 -1 -2 -2 -1 -1 -1 -2 -2 -2 -2 -2 -2 -2 -2 -2 -2 -3 -3 -3 -3 -3 -3 -3 -3 -3 -2 -2 -2 -2 -2 -2 -2 -2 -2 -2 -2 -1 -1 -1 -1 -1 -1 -1 -1 -1 -1 -1 -1 -1 -1
2 2 2 2 1 1 1 1 1 1 0 0 0 0 -0 -0 -0 -0 -0 -1 -1 -1 -1 -1 -1 -1 -1 -1 -2 -2 -2 -2 -2 -2 -1 -1 -1 -2 -2 -2 -2 -2 -2 -2 -2 -2 -2 -2 -2 -2 -3 -3 -3 -3 -3 -3 -3 -3 -3 -3 -3 -2 -2 -2 -2 -2 -2 -2 -2 -2 -2 -2 -2 -1 -1 -1 -1 -1 -1 -1 -1 -1 -1 -1 -1 -1
2 2 2 2 1 1 1 1 1 0 0 0 0 0 -0 -0 -1 -1 -1 -1 -1 -1 -1 -2 -2 -2 -2 -1 -1 -2 -2 -2 -2 -2 -2 -1 -1 -2 -2 -2 -2 -2 -2 -2 -2 -2 -2 -2 -2 -3 -3 -3 -3 -3 -3 -3 -3 -3 -3 -3 -3 -3 -2 -2 -2 -2 -2 -2 -2 -2 -2 -2 -2 -2 -2 -1 -1 -1 -1 -1 -1 -1 -1 -1 -1 -1
2 2 2 1 1 1 1 1 1 0 0 0 0 -0 -0 -1 -1 -1 -1 -1 -2 -2 -2 -2 -2 -2 -2 -2 -2 -2 -2 -2 -2 -2 -2 -1 -1 -2 -2 -2 -2 -2 -2 -2 -2 -2 -2 -2 -2 -3 -3 -3 -3 -3 -3 -3 -3 -3 -3 -3 -3 -3 -3 -3 -2 -2 -2 -2 -2 -2 -2 -2 -2 -2 -2 -2 -1 -1 -1 -1 -1 -1 -1 -1 -1 -1
2 1 1 1 1 1 1 0 0 0 0 0 -0 -0 -1 -1 -1 -1 -2 -2 -2 -2 -2 -2 -2 -2 -2 -2 -2 -2 -2 -3 -3 -3 -3 -2 -1 -2 -2 -2 -2 -2 -2 -2 -2 -2 -2 -2 -3 -3 -3 -2 -3 -3 -3 -3 -3 -3 -3 -3 -3 -3 -3 -3 -3 -2 -2 -2 -2 -2 -2 -2 -2 -2 -2 -2 -1 -1 -1 -1 -1 -1 -1 -1 -1 -1
1 1 1 1 1 1 1 0 0 0 -0 -0 -0 -0 -1 -1 -1 -2 -2 -2 -2 -2 -2 -2 -2 -2 -2 -2 -2 -2 -2 -3 -3 -3 -3 -3 -2 -1 -2 -2 -2 -2 -2 -2 -2 -2 -2 -2 -3 -3 -3 -2 -3 -3 -3 -3 -3 -3 -3 -3 -3 -3 -3 -3 -3 -3 -3 -2 -2 -2 -2 -2 -2 -2 -2 -2 -2 -1 -1 -1 -1 -1 -1 -1 -1 -1
1 1 1 0 0 0 0 0 -0 -0 -1 -1 -1 -1 -1 -1 -1 -2 -2 -2 -2 -2 -2 -2 -3 -3 -3 -2 -2 -2 -2 -2 -3 -3 -3 -3 -2 -2 -2 -2 -2 -2 -2 -2 -2 -2 -2 -2 -2 -3 -2 -2 -2 -2 -3 -3 -3 -3 -3 -3 -3 -3 -3 -3 -3 -3 -3 -3 -3 -2 -2 -2 -2 -2 -2 -2 -2 -2 -2 -1 -1 -1 -1 -1 -1 -1
0 0 0 0 0 -0 -0 -0 -0 -1 -1 -1 -1 -1 -1 -1 -2 -2 -2 -2 -2 -3 -3 -3 -3 -3 -2 -2 -2 -2 -2 -2 -2 -3 -3 -2 -2 -2 -2 -2 -2 -2 -2 -2 -2 -2 -2 -2 -2 -2 -2 -2 -2 -3 -3 -3 -3 -3 -3 -3 -3 -3 -3 -3 -3 -3 -3 -3 -3 -3 -3 -3 -3 -2 -2 -2 -2 -2 -2 -2 -2 -2 -2 -2 -2 -2
-0 -0 -0 -0 -0 -0 -1 -1 -1 -1 -1 -1 -1 -1 -2 -2 -2 -2 -2 -2 -3 -3 -3 -3 -3 -3 -2 -2 -2 -2 -2 -2 -2 -2 -3 -3 -2 -2 -2 -2 -3 -3 -2 -2 -2 -2 -2 -2 -2 -2 -2 -2 -2 -3 -3 -3 -3 -3 -3 -3 -3 -3 -3 -3 -3 -3 -3 -3 -3 -3 -3 -3 -3 -3 -3 -2 -2 -2 -2 -2 -2 -2 -2 -2 -2 -2
-1 -1 -1 -1 -1 -1 -1 -1 -1 -1 -1 -2 -2 -2 -2 -2 -2 -3 -3 -3 -3 -3 -3 -3 -3 -3 -3 -3 -2 -2 -2 -2 -2 -2 -3 -3 -3 -2 -3 -3 -3 -3 -3 -2 -2 -2 -2 -2 -2 -2 -2 -2 -3 -3 -3 -3 -3 -3 -3 -3 -3 -3 -3 -3 -3 -3 -3 -3 -3 -3 -3 -3 -3 -3 -3 -3 -3 -2 -2 -2 -2 -2 -2 -2 -2 -2
-1 -1 -1 -2 -2 -2 -2 -2 -2 -2 -2 -2 -2 -2 -3 -3 -3 -3 -3 -3 -3 -3 -3 -3 -3 -3 -3 -3 -2 -2 -2 -2 -2 -2 -3 -3 -3 -3 -3 -3 -3 -3 -3 -2 -2 -2 -2 -2 -2 -2 -2 -3 -3 -3 -3 -3 -3 -3 -3 -3 -3 -3 -3 -3 -3 -3 -3 -3 -3 -3 -3 -3 -3 -3 -3 -3 -3 -3 -3 -2 -2 -2 -2 -2 -2 -2
-2 -2 -2 -2 -2 -2 -2 -2 -2 -3 -3 -3 -3 -3 -3 -3 -3 -3 -3 -3 -3 -3 -3 -4 -3 -3 -3 -3 -2 -2 -2 -2 -2 -3 -3 -3 -3 -3 -3 -3 -3 -3 -3 -2 -2 -2 -2 -2 -2 -3 -2 -2 -3 -3 -3 -3 -3 -3 -3 -3 -3 -3 -3 -3 -3 -3 -3 -3 -3 -3 -3 -3 -3 -3 -3 -3 -3 -3 -3 -3 -3 -3 -2 -2 -2 -3
-2 -2 -2 -2 -2 -2 -2 -2 -3 -3 -3 -3 -3 -3 -3 -3 -3 -3 -3 -3 -3 -4 -4 -4 -4 -3 -3 -3 -3 -2 -2 -2 -3 -3 -3 -3 -3 -3 -3 -3 -4 -3 -3 -3 -2 -2 -3 -3 -3 -3 -2 -2 -2 -3 -3 -3 -3 -3 -3 -3 -3 -3 -3 -4 -4 -4 -4 -4 -4 -4 -3 -3 -3 -3 -3 -3 -3 -3 -3 -3 -3 -3 -3 -3 -3 -3
-2 -2 -2 -3 -3 -3 -3 -3 -3 -3 -3 -3 -3 -3 -4 -4 -4 -3 -4 -4 -4 -4 -4 -4 -4 -4 -4 -3 -3 -3 -2 -3 -3 -3 -3 -3 -3 -3 -3 -4 -4 -4 -4 -3 -2 -2 -3 -3 -3 -3 -3 -3 -3 -3 -3 -3 -3 -3 -3 -4 -4 -4 -4 -4 -4 -4 -4 -4 -4 -4 -4 -4 -4 -3 -3 -3 -3 -3 -3 -3 -3 -3 -3 -3 -3 -3
-3 -3 -3 -3 -3 -3 -3 -3 -3 -3 -3 -3 -3 -3 -4 -4 -4 -4 -4 -4 -4 -4 -4 -4 -4 -4 -4 -3 -4 -5 -3 -3 -3 -4 -4 -3 -3 -4 -4 -4 -4 -4 -4 -4 -3 -4 -5 -3 -3 -3 -3 -3 -2 -3 -3 -3 -4 -4 -4 -4 -4 -4 -4 -4 -4 -4 -4 -4 -4 -4 -4 -4 -4 -4 -4 -4 -3 -3 -3 -3 -3 -3 -3 -3 -3 -3
-3 -3 -3 -3 -3 -3 -3 -3 -3 -3 -3 -3 -3 -3 -4 -4 -4 -4 -4 -4 -4 -4 -4 -4 -4 -4 -4 -4 -4 -4 -3 -3 -3 -4 -4 -4 -4 -4 -4 -4 -4 -4 -4 -4 -4 -5 -6 -4 -3 -3 -3 -2 -2 -3 -3 -4 -4 -4 -4 -4 -4 -4 -4 -4 -4 -4 -4 -4 -4 -4 -4 -4 -4 -4 -4 -4 -4 -4 -4 -3 -3 -3 -3 -3 -3 -3
-3 -3 -3 -3 -3 -3 -3 -4 -4 -4 -4 -4 -4 -4 -4 -4 -4 -4 -4 -4 -4 -4 -4 -4 -4 -4 -4 -4 -4 -3 -3 -3 -3 -4 -4 -4 -4 -4 -4 -4 -4 -4 -4 -5 -5 -5 -5 -4 -4 -4 -4 -3 -3 -3 -3 -4 -4 -4 -4 -4 -4 -4 -4 -4 -4 -4 -4 -4 -4 -4 -4 -4 -4 -4 -4 -4 -4 -4 -4 -4 -3 -3 -3 -3 -4 -4
-3 -3 -3 -4 -4 -4 -4 -4 -4 -4 -4 -4 -4 -4 -4 -4 -4 -4 -4 -4 -4 -4 -4 -4 -4 -4 -4 -4 -4 -4 -3 -3 -4 -4 -4 -4 -4 -4 -4 -4 -4 -5 -5 -5 -5 -5 -5 -5 -5 -5 -5 -5 -4 -3 -3 -4 -4 -4 -4 -4 -4 -4 -4 -4 -4 -4 -4 -4 -4 -4 -4 -4 -4 -4 -4 -4 -4 -4 -4 -4 -4 -3 -3 -3 -3 -3
-4 -4 -4 -4 -4 -4 -4 -4 -4 -4 -4 -4 -4 -4 -4 -4 -4 -4 -4 -4 -4 -4 -4 -4 -4 -4 -4 -4 -4 -4 -4 -4 -4 -4 -4 -4 -4 -4 -5 -5 -5 -5 -5 -5 -5 -5 -5 -5 -6 -6 -6 -6 -5 -4 -4 -4 -4 -4 -4 -4 -4 -4 -4 -4 -4 -4 -4 -4 -4 -4 -4 -4 -4 -4 -4 -4 -4 -4 -4 -4 -4 -4 -4 -3 -3 -3
-4 -4 -4 -4 -4 -4 -4 -3 -4 -4 -4 -4 -4 -4 -4 -4 -4 -4 -4 -4 -4 -4 -4 -4 -4 -4 -4 -4 -4 -4 -4 -4 -4 -4 -4 -5 -5 -5 -5 -5 -5 -5 -5 -5 -5 -5 -6 -6 -6 -6 -6 -6 -6 -5 -4 -4 -4 -4 -4 -4 -4 -4 -4 -4 -5 -5 -5 -5 -4 -4 -4 -4 -4 -4 -4 -4 -4 -4 -4 -4 -4 -4 -4 -4 -4 -4
-4 -4 -4 -4 -4 -4 -4 -4 -4 -4 -4 -4 -4 -4 -4 -4 -4 -4 -4 -4 -4 -4 -4 -4 -5 -5 -5 -5 -4 -4 -4 -4 -4 -4 -4 -4 -5 -5 -5 -5 -5 -5 -5 -5 -5 -6 -6 -6 -6 -6 -7 -7 -7 -6 -6 -5 -5 -4 -4 -4 -4 -4 -4 -4 -5 -5 -5 -5 -5 -5 -5 -5 -5 -5 -5 -4 -4 -4 -4 -4 -4 -4 -4 -4 -4 -4
-4 -4 -4 -4 -4 -4 -4 -4 -4 -4 -4 -4 -4 -4 -4 -4 -4 -4 -4 -4 -4 -4 -4 -5 -5 -5 -5 -5 -5 -5 -4 -4 -4 -4 -4 -4 -5 -5 -5 -5 -5 -5 -5 -5 -6 -6 -6 -6 -7 -7 -7 -7 -7 -7 -7 -6 -6 -5 -5 -4 -4 -4 -4 -4 -5 -5 -5 -5 -5 -5 -5 -5 -5 -5 -5 -5 -5 -4 -4 -4 -4 -4 -4 -4 -4 -4
-4 -4 -4 -4 -4 -4 -4 -4 -4 -4 -4 -4 -4 -4 -4 -4 -4 -4 -5 -5 -5 -5 -5 -5 -5 -5 -5 -5 -5 -5 -5 -5 -5 -5 -5 -5 -5 -5 -5 -5 -5 -5 -5 -6 -6 -6 -6 -7 -7 -7 -7 -7 -7 -7 -7 -7 -6 -6 -6 -5 -5 -4 -4 -4 -5 -5 -5 -5 -5 -5 -5 -5 -5 -5 -5 -5 -5 -5 -5 -4 -4 -4 -4 -4 -4 -4
-4 -4 -4 -4 -4 -4 -4 -4 -4 -4 -4 -4 -4 -4 -4 -4 -4 -5 -5 -5 -5 -5 -5 -5 -5 -5 -5 -5 -5 -5 -5 -5 -5 -5 -5 -5 -5 -5 -5 -5 -5 -5 -5 -6 -6 -6 -7 -7 -7 -7 -7 -7 -7 -7 -7 -7 -7 -7 -7 -6 -6 -5 -4 -4 -4 -5 -5 -5 -5 -5 -5 -5 -5 -5 -5 -5 -5 -5 -5 -5 -5 -5 -5 -5 -4 -4
-4 -4 -4 -4 -4 -4 -4 -4 -4 -4 -4 -4 -4 -4 -4 -4 -4 -5 -5 -5 -5 -5 -5 -5 -5 -5 -5 -5 -5 -5 -5 -5 -4 -4 -4 -5 -5 -5 -5 -5 -5 -5 -5 -6 -6 -6 -7 -7 -7 -7 -7 -8 -7 -7 -7 -7 -7 -7 -7 -7 -6 -6 -5 -5 -5 -5 -5 -5 -5 -5 -5 -5 -5 -5 -5 -5 -5 -5 -5 -5 -5 -5 -5 -5 -5 -5
-4 -4 -4 -4 -4 -4 -4 -4 -4 -4 -4 -4 -4 -4 -4 -4 -5 -5 -5 -5 -5 -5 -5 -5 -5 -5 -5 -5 -5 -5 -5 -5 -5 -5 -5 -5 -5 -5 -5 -5 -5 -5 -6 -6 -6 -7 -7 -7 -7 -7 -8 -8 -7 -7 -7 -7 -7 -7 -7 -7 -7 -6 -6 -5 -4 -5 -5 -5 -5 -5 -5 -5 -5 -5 -5 -5 -5 -5 -5 -5 -5 -5 -5 -5 -5 -5
-4 -4 -4 -4 -4 -5 -5 -5 -5 -5 -5 -5 -5 -5 -5 -5 -5 -5 -5 -5 -5 -5 -5 -5 -5 -5 -5 -5 -5 -4 -4 -5 -5 -5 -5 -5 -5 -5 -5 -5 -5 -5 -6 -6 -7 -7 -7 -8 -8 -8 -8 -7 -7 -7 -7 -7 -7 -7 -7 -7 -7 -7 -7 -5 -5 -4 -5 -5 -5 -5 -5 -5 -5 -5 -5 -5 -5 -5 -5 -5 -5 -5 -5 -5 -5 -5
-4 -4 -4 -5 -5 -5 -5 -5 -5 -5 -5 -5 -5 -5 -5 -5 -5 -5 -5 -5 -5 -5 -5 -5 -5 -6 -6 -5 -5 -4 -4 -4 -5 -5 -5 -5 -5 -5 -5 -5 -5 -6 -6 -6 -7 -7 -7 -8 -8 -7 -7 -7 -7 -7 -7 -7 -7 -7 -7 -7 -7 -7 -7 -6 -5 -5 -5 -5 -5 -5 -5 -5 -5 -5 -5 -5 -5 -5 -5 -5 -5 -5 -5 -5 -5 -5
-4 -4 -5 -5 -5 -5 -5 -5 -5 -5 -5 -5 -5 -5 -5 -5 -5 -5 -5 -5 -5 -5 -5 -6 -6 -6 -6 -6 -5 -5 -5 -4 -4 -4 -5 -5 -5 -5 -5 -5 -6 -6 -6 -7 -7 -7 -7 -7 -8 -7 -7 -7 -7 -7 -7 -7 -7 -7 -7 -6 -6 -6 -6 -6 -6 -5 -5 -5 -5 -5 -5 -5 -5 -5 -5 -5 -5 -5 -5 -5 -5 -5 -5 -5 -5 -5
-4 -4 -4 -5 -5 -5 -5 -5 -5 -5 -5 -5 -5 -5 -5 -5 -5 -5 -5 -6 -6 -6 -6 -6 -6 -6 -6 -6 -6 -6 -5 -5 -4 -4 -5 -5 -5 -5 -5 -6 -6 -6 -7 -7 -7 -7 -7 -7 -7 -7 -7 -7 -7 -7 -7 -7 -7 -7 -7 -6 -6 -6 -6 -6 -5 -5 -5 -5 -5 -5 -5 -5 -5 -5 -5 -5 -5 -5 -5 -5 -5 -5 -5 -5 -5 -5
-4 -4 -4 -4 -5 -5 -5 -5 -5 -5 -5 -5 -5 -5 -5 -5 -6 -6 -6 -6 -6 -6 -6 -6 -6 -6 -6 -6 -6 -6 -6 -5 -5 -5 -5 -5 -5 -5 -6 -6 -7 -7 -7 -7 -7 -7 -7 -7 -7 -7 -7 -7 -7 -7 -7 -7 -7 -7 -6 -6 -6 -6 -6 -6 -5 -5 -5 -5 -5 -5 -5 -5 -5 -5 -5 -5 -5 -5 -5 -5 -5 -5 -5 -5 -5 -5
-4 -4 -4 -4 -5 -5 -5 -5 -5 -5 -5 -5 -5 -5 -5 -6 -6 -6 -6 -6 -6 -6 -6 -6 -6 -6 -6 -6 -6 -6 -6 -6 -6 -5 -5 -5 -5 -5 -6 -6 -7 -7 -7 -7 -7 -7 -7 -7 -7 -7 -7 -7 -7 -7 -7 -7 -7 -7 -6 -6 -6 -6 -6 -6 -5 -5 -5 -5 -5 -5 -5 -5 -5 -5 -5 -5 -5 -5 -5 -5 -5 -5 -5 -5 -5 -5
-4 -4 -4 -5 -5 -5 -5 -5 -5 -5 -6 -6 -6 -6 -6 -6 -6 -6 -6 -6 -6 -6 -6 -6 -6 -6 -6 -6 -6 -6 -6 -6 -6 -6 -6 -5 -6 -6 -6 -6 -6 -6 -7 -7 -7 -7 -7 -7 -7 -7 -7 -7 -7 -7 -7 -7 -6 -6 -6 -6 -6 -6 -6 -5 -5 -5 -5 -5 -5 -5 -5 -5 -5 -5 -5 -5 -5 -5 -5 -5 -5 -5 -5 -5 -5 -5
-4 -4 -5 -5 -5 -5 -5 -5 -5 -6 -6 -6 -6 -6 -6 -6 -6 -6 -6 -6 -6 -6 -6 -6 -6 -6 -6 -6 -6 -6 -6 -6 -6 -6 -6 -6 -6 -6 -6 -6 -6 -6 -6 -6 -7 -7 -7 -7 -7 -7 -7 -7 -7 -7 -7 -7 -6 -6 -6 -6 -6 -6 -6 -5 -5 -5 -5 -5 -5 -5 -5 -5 -5 -5 -5 -5 -5 -5 -5 -5 -5 -5 -5 -5 -5 -5
-4 -5 -5 -5 -5 -5 -5 -5 -5 -6 -6 -6 -6 -6 -6 -6 -6 -6 -6 -6 -6 -6 -6 -6 -6 -6 -6 -6 -6 -6 -6 -7 -7 -7 -6 -6 -6 -6 -6 -6 -6 -6 -6 -6 -6 -6 -6 -6 -6 -6 -6 -6 -6 -6 -6 -6 -6 -6 -6 -6 -5 -5 -5 -5 -5 -5 -5 -5 -5 -5 -5 -5 -5 -5 -5 -5 -5 -5 -5 -5 -5 -5 -5 -5 -5 -6
Height
833 834 834 835 835 835 836 836 837 837 837 838 838 838 839 839 839 840 840 840 840 840 840 841 841 841 841 841 842 842 842 843 843 843 843 843 843 843 843 843 843 843 842 842 842 842 842 842 841 841 841 841 841 840 840 840 840 840 840 840 840 840 840 840 840 840 840 840 840 840 840 840 839 839 839 839 839 840 840 840 839 839 839 839 839 839
833 833 834 834 835 835 836 836 836 837 837 837 837 838 838 839 839 839 840 840 840 840 840 840 841 841 841 841 842 842 842 843 843 843 843 843 843 843 843 842 842 842 842 842 842 842 841 841 841 841 840 840 840 840 840 840 840 840 840 839 839 839 839 840 840 839 839 839 839 839 839 839 839 839 839 839 839 839 839 839 839 839 839 839 839 839
832 833 833 834 834 835 835 836 836 836 836 837 837 838 838 839 839 839 840 840 840 840 840 840 840 841 841 841 842 842 842 842 842 842 842 842 842 842 842 842 842 842 842 842 841 841 841 841 840 840 840 840 840 839 839 839 839 839 839 839 839 839 839 839 839 839 839 838 838 838 838 838 838 838 839 839 839 839 839 839 838 838 838 838 838 838
831 832 833 833 834 835 835 835 836 836 836 836 837 838 838 839 839 839 840 840 840 840 840 840 840 841 841 841 842 842 842 842 842 842 842 842 842 842 842 842 842 842 841 841 841 841 840 840 840 840 839 839 839 839 838 838 838 838 838 838 838 838 838 838 838 838 838 838 838 838 838 838 838 838 838 838 838 838 838 838 838 838 838 838 838 838
830 831 832 833 834 834 835 835 835 836 836 836 837 837 838 839 839 839 840 840 840 840 840 840 840 840 841 841 841 841 842 842 842 842 842 842 842 842 842 841 841 841 841 841 840 840 840 840 839 839 839 838 838 838 838 837 837 837 837 837 837 837 837 837 837 837 837 837 837 837 837 837 837 837 837 837 837 837 837 837 837 837 837 837 837 837
830 831 831 832 833 834 834 835 835 835 836 836 837 837 838 839 839 839 840 840 840 840 840 840 840 840 841 841 841 841 841 841 841 841 841 841 841 841 841 841 841 840 840 840 840 840 839 839 839 838 838 838 837 837 837 837 836 836 836 836 836 836 836 836 836 836 837 837 837 837 837 837 837 837 837 837 837 837 837 837 837 837 837 837 837 837
830 830 831 832 833 833 834 835 835 835 836 836 837 837 838 838 839 839 839 840 840 840 840 840 840 840 840 840 841 841 841 841 841 841 841 841 841 841 840 840 840 840 840 840 839 839 839 838 838 838 837 837 837 836 836 836 835 835 835 835 835 835 835 835 835 836 836 836 836 836 836 836 836 836 836 836 836 836 836 836 836 836 836 836 836 836
829 830 830 831 832 833 834 834 835 835 835 836 836 837 838 838 839 839 839 839 839 839 840 840 840 840 840 840 840 840 840 840 840 840 840 840 840 840 840 840 840 839 839 839 839 838 838 838 837 837 837 836 836 835 835 835 835 834 834 834 834 834 834 835 835 835 835 835 835 835 836 836 836 836 836 836 835 835 835 835 835 835 836 835 835 835
827 829 830 831 832 832 833 834 834 835 835 836 836 837 837 838 838 838 839 839 839 839 839 839 840 840 840 840 840 840 840 840 840 840 840 840 840 840 839 839 839 839 838 838 838 838 837 837 837 836 836 836 835 835 834 834 834 834 834 833 834 834 834 834 834 834 834 835 835 835 835 835 835 835 835 835 835 835 835 835 835 835 835 835 835 835
827 828 829 830 831 832 832 833 834 834 835 835 836 836 836 837 837 838 838 838 838 839 839 839 839 840 840 840 840 840 840 840 840 840 840 840 839 839 838 838 838 838 838 837 837 837 836 836 836 836 835 835 835 834 834 833 833 833 833 833 833 833 833 833 833 833 833 834 834 834 834 834 834 834 835 835 835 835 835 835 835 835 835 835 835 835
827 828 829 830 831 831 832 832 833 834 834 835 835 836 836 836 836 837 837 837 838 838 839 839 839 839 839 840 840 839 839 839 839 839 839 839 839 838 838 837 837 837 837 836 836 836 835 835 835 835 835 834 834 834 833 833 833 833 833 833 833 833 833 833 833 833 833 833 833 833 833 833 834 834 834 834 834 834 834 834 834 834 834 834 834 834
827 828 829 830 830 831 831 832 833 833 834 834 835 835 835 836 836 836 836 837 837 838 838 838 839 839 839 839 839 839 839 839 839 839 839 838 838 837 837 837 836 836 836 836 835 835 835 835 834 834 834 834 834 833 833 833 833 833 832 832 832 832 832 832 832 832 832 832 832 833 833 833 833 833 833 833 833 834 834 834 834 834 834 834 834 834
826 827 828 829 830 830 831 831 832 833 833 834 834 834 835 835 835 835 836 836 837 837 838 838 838 838 838 838 838 838 838 838 838 838 838 838 837 837 836 836 835 835 835 835 835 835 834 834 834 834 833 833 833 833 833 832 832 832 832 832 832 832 832 832 832 832 832 832 832 832 832 833 833 833 833 833 833 833 833 833 833 833 833 833 833 834
826 827 827 828 829 830 830 831 831 832 832 833 833 833 834 834 835 835 835 836 836 837 837 837 837 837 837 837 837 837 837 837 837 837 837 837 836 836 835 835 835 835 835 835 834 834 834 834 833 833 833 833 833 832 832 832 832 832 832 832 831 831 831 831 831 831 831 832 832 832 832 832 832 832 832 832 832 833 833 833 833 833 833 833 833 833
825 826 827 827 828 829 830 830 830 831 831 832 832 833 833 833 834 835 835 835 836 836 836 837 837 837 837 837 836 837 837 836 836 836 836 836 836 835 835 835 834 834 834 834 834 834 833 833 833 833 832 832 832 832 832 832 832 832 831 831 831 831 831 831 831 831 831 831 831 831 831 832 832 832 832 832 832 832 832 832 832 832 832 832 832 832
824 825 826 827 827 828 829 830 830 830 830 831 832 832 832 833 834 834 835 835 835 835 836 836 836 836 836 836 836 836 836 836 836 836 836 836 835 835 834 834 834 834 834 834 834 833 833 833 833 832 832 832 832 832 832 832 831 831 831 831 830 830 830 830 830 830 830 830 830 831 831 831 831 831 831 831 831 831 831 832 832 832 832 832 832 832
824 825 825 826 827 828 828 829 829 830 830 830 831 832 832 833 833 834 834 834 835 835 835 835 836 836 835 835 835 835 835 835 835 835 835 835 835 834 834 834 833 833 833 833 833 833 833 832 832 832 832 831 831 831 831 831 831 831 830 830 830 830 829 829 829 830 830 830 830 830 830 830 830 831 831 831 831 831 831 831 831 831 831 831 831 831
824 825 825 826 826 827 828 828 829 829 830 830 830 831 832 832 833 833 833 834 834 834 835 835 835 835 835 835 835 835 835 835 835 835 834 834 834 834 833 833 833 833 833 833 833 832 832 832 832 831 831 831 831 831 831 831 830 830 830 830 829 829 829 829 829 829 829 829 829 830 830 830 830 830 830 830 830 830 830 830 830 831 831 831 831 831
823 824 825 825 826 826 827 828 828 829 829 830 830 831 831 832 832 833 833 833 834 834 834 834 834 834 835 835 835 835 834 834 834 834 834 834 834 833 833 833 833 833 832 832 832 832 832 831 831 831 830 830 830 830 830 830 830 830 829 829 829 828 828 828 829 829 829 829 829 829 829 829 829 830 830 830 830 830 830 830 830 830 830 830 830 830
823 824 824 825 825 826 826 827 828 828 829 829 830 830 831 831 832 832 832 833 833 833 833 834 834 834 834 834 834 834 834 834 834 834 833 833 833 833 833 833 832 832 832 832 832 831 831 831 830 830 830 830 830 830 830 830 829 829 829 828 828 828 828 828 828 828 828 829 829 829 829 829 829 829 829 829 829 829 830 830 830 830 830 830 830 830
823 823 824 825 825 825 826 826 827 828 828 829 829 830 830 831 831 831 832 832 832 832 833 833 833 833 833 833 834 834 833 833 833 833 833 833 833 833 832 832 832 832 832 831 831 831 830 830 830 830 829 829 829 829 829 829 829 828 828 828 827 827 827 828 828 828 828 828 828 828 829 828 828 828 828 829 829 829 829 829 829 829 829 829 829 829
823 823 824 824 825 825 825 826 827 827 828 828 829 829 830 830 831 831 831 831 832 832 832 832 832 832 832 832 833 833 833 833 833 833 833 832 832 832 832 832 831 831 831 831 830 830 830 830 829 829 829 829 829 829 829 829 828 828 827 827 827 827 827 827 827 827 828 828 828 828 828 828 828 828 828 828 828 828 828 828 828 828 828 828 828 828
822 823 824 824 825 825 825 826 826 827 828 828 829 829 830 830 830 830 831 831 831 831 831 832 832 832 832 832 832 832 832 832 832 832 832 832 832 832 831 831 831 831 830 830 830 830 829 829 828 828 828 828 828 828 828 828 828 827 827 827 827 827 827 827 827 827 827 827 827 827 827 827 827 827 827 827 827 827 827 827 827 827 827 827 827 827
822 823 824 824 825 825 825 826 826 827 827 828 828 829 829 830 830 830 830 830 830 831 831 831 831 831 831 831 831 831 831 831 831 831 831 831 831 831 831 831 830 830 830 830 829 829 828 828 828 828 828 828 828 828 828 828 828 827 827 827 827 827 827 827 826 826 826 826 826 826 826 826 826 826 826 826 826 826 826 826 826 826 826 826 826 826
823 823 824 824 825 825 825 826 826 827 827 827 828 828 829 829 829 830 830 830 830 830 830 830 830 830 830 830 831 831 830 831 831 831 831 831 831 830 830 830 830 830 829 829 829 828 828 827 827 827 827 827 828 828 828 828 827 827 827 827 827 827 826 826 826 826 826 826 825 825 825 825 825 825 825 825 825 826 826 826 826 826 826 826 826 826
823 823 824 824 825 825 825 825 826 826 827 827 827 828 828 828 829 829 829 829 829 830 830 830 830 830 830 830 830 830 830 830 830 830 830 830 830 830 830 830 829 829 828 828 828 827 827 827 827 827 827 827 827 827 827 827 827 827 827 826 826 826 826 826 826 825 825 825 825 825 825 825 825 825 825 825 825 825 825 825 825 825 825 825 825 825
823 823 824 824 825 825 825 825 826 826 826 827 827 827 827 827 828 828 828 828 829 829 829 829 830 830 830 830 830 830 830 830 830 830 830 830 830 830 830 829 829 828 828 828 827 827 827 826 826 826 826 826 826 826 826 826 826 826 826 826 825 825 825 825 825 825 825 825 825 824 824 824 824 824 824 824 824 824 824 824 824 824 824 824 824 824
823 823 824 824 824 825 825 825 825 826 826 826 826 827 826 827 827 827 827 828 828 828 828 829 829 829 829 829 829 829 829 829 829 829 830 830 830 829 829 829 828 828 827 827 827 826 826 826 826 826 826 826 826 826 826 826 825 825 825 825 825 825 825 825 825 824 824 824 824 824 824 823 823 823 823 823 823 823 823 823 823 823 823 823 822 822
822 823 823 823 824 824 824 825 825 825 825 826 826 826 826 826 826 826 827 827 827 827 828 828 828 828 829 828 828 828 829 829 829 829 829 829 829 829 829 829 828 828 827 827 826 826 826 826 825 825 825 825 825 825 825 825 825 825 825 824 824 824 824 824 824 824 824 823 823 823 823 823 823 822 822 822 822 822 822 822 822 821 821 821 821 820
822 822 823 823 823 823 824 824 824 825 825 825 825 826 825 825 825 826 826 826 826 826 827 827 827 828 828 828 828 828 828 828 828 828 828 829 828 828 828 828 828 827 827 826 826 826 825 825 825 825 825 825 825 825 825 825 824 824 824 824 824 824 823 823 823 823 823 822 822 822 822 822 822 822 821 821 821 821 821 821 820 820 820 820 820 819
821 822 822 822 823 823 823 824 824 824 824 825 825 825 825 825 825 825 825 825 825 826 826 826 827 827 827 828 828 828 827 827 827 828 828 828 828 828 828 827 827 827 826 826 826 826 826 825 825 825 825 825 825 825 825 824 824 823 823 823 823 823 823 822 822 822 822 821 821 821 821 821 821 821 820 820 820 820 820 820 820 820 819 819 818 818
821 821 822 822 822 822 823 823 823 823 823 824 824 824 824 824 824 824 824 824 825 825 825 825 826 826 827 827 827 827 827 827 827 827 827 827 827 827 827 827 827 826 826 826 826 826 826 825 825 824 824 824 824 824 824 823 823 823 822 822 822 822 822 822 821 821 821 821 820 820 820 820 820 820 820 820 820 819 819 819 819 819 818 818 818 817
820 821 821 821 821 822 822 822 822 822 823 823 823 823 823 823 823 823 823 823 824 824 824 825 825 825 826 826 826 826 827 827 826 826 826 826 826 826 826 826 826 826 826 826 826 826 826 825 825 824 823 823 823 823 823 822 822 822 822 821 821 821 821 821 820 820 820 820 820 820 819 819 819 819 819 818 818 818 818 818 818 818 818 817 817 817
820 820 821 821 821 821 821 821 822 822 822 822 822 822 822 822 822 822 822 822 822 823 823 824 824 825 825 825 825 825 826 826 826 825 825 826 826 826 826 826 826 826 825 825 825 825 825 825 825 824 823 822 822 822 822 822 822 821 821 821 820 820 820 820 820 819 819 819 819 819 818 818 818 818 818 817 817 817 817 817 817 818 817 817 817 816
820 820 820 820 820 820 821 821 821 821 821 821 821 821 821 821 821 821 821 821 821 822 822 822 823 823 824 824 824 825 825 825 825 825 825 825 825 825 825 825 825 825 825 825 825 825 825 825 824 824 823 821 821 821 821 821 821 821 820 820 820 820 819 819 819 818 818 818 818 818 818 817 817 817 817 817 817 816 817 817 817 817 816 816 816 816
819 819 819 820 820 820 820 820 820 820 820 820 820 820 820 820 820 820 820 821 821 821 821 821 822 822 822 823 823 824 825 825 825 824 824 824 824 825 825 825 825 825 825 825 825 825 824 824 824 823 823 822 821 820 820 820 820 820 820 820 819 819 819 818 818 818 817 817 817 817 817 817 816 816 816 816 816 816 816 815 815 815 815 815 815 815
818 818 819 819 819 819 819 819 819 819 819 819 819 819 820 820 820 820 820 820 820 820 820 821 821 821 822 822 822 823 823 824 824 824 824 824 824 824 824 824 824 824 824 824 824 824 824 824 823 823 823 822 822 820 820 819 819 819 819 819 818 818 818 818 817 817 817 816 816 816 816 816 816 815 815 815 815 815 815 815 814 814 814 814 814 814
817 817 818 818 818 818 818 818 818 818 818 818 818 819 819 819 819 819 819 819 820 820 820 820 820 820 821 821 821 822 822 822 823 823 823 823 823 823 823 823 823 823 823 823 823 823 823 823 823 823 822 822 821 820 820 819 818 818 818 818 817 817 817 817 817 816 816 816 816 815 815 815 815 815 815 814 814 814 814 813 813 813 813 813 812 812
816 816 817 817 817 817 817 817 817 817 817 818 818 818 818 818 818 818 818 819 819 819 819 819 820 820 820 820 820 821 821 821 821 821 822 822 822 822 822 822 822 822 822 822 822 822 823 823 823 822 822 821 820 820 819 819 818 818 817 817 816 816 816 816 816 816 815 815 815 815 815 814 814 814 814 813 813 813 812 812 812 812 812 811 811 811
815 816 816 816 816 816 816 816 817 817 817 817 817 817 817 817 817 818 818 818 818 818 818 819 819 819 819 819 819 820 820 820 820 820 820 820 820 820 820 820 821 821 821 821 821 821 822 822 822 822 821 821 820 820 819 818 818 817 817 816 816 815 815 815 815 815 815 815 815 814 814 814 813 813 813 813 812 812 812 811 811 811 810 810 810 809
815 815 815 815 816 816 816 816 816 816 816 816 816 816 816 817 817 817 817 817 817 817 817 818 818 818 818 818 818 818 818 818 819 819 819 819 819 819 819 819 820 820 820 820 820 820 820 821 821 821 820 820 820 819 819 818 817 817 817 817 816 815 815 815 815 815 815 814 814 814 813 813 813 812 812 812 812 811 811 811 810 810 810 810 809 809
814 814 815 815 815 815 815 815 815 815 815 815 816 816 816 816 816 816 816 816 817 817 817 817 817 817 817 817 817 817 817 817 817 817 817 818 818 818 818 818 819 819 819 819 819 819 820 820 820 820 820 820 820 819 818 817 817 817 817 816 815 815 814 814 814 814 814 814 813 813 813 812 812 811 811 811 811 810 810 810 810 810 809 809 808 808
813 814 814 814 814 814 814 815 815 815 815 815 815 815 815 815 815 816 816 816 816 816 816 816 816 816 816 815 815 816 816 816 816 816 816 816 817 817 817 817 818 818 818 818 818 818 818 819 819 819 819 819 819 818 817 816 816 816 815 815 815 815 814 813 813 813 813 813 812 812 812 812 811 811 810 810 810 810 809 809 809 809 808 808 808 807
813 813 813 813 813 813 814 814 814 814 814 814 814 814 815 815 815 815 815 815 815 815 815 815 815 815 815 814 814 814 815 815 815 815 815 815 816 816 816 816 816 817 817 817 817 817 817 818 818 818 818 818 818 818 817 816 815 815 815 815 815 815 814 813 812 812 812 812 812 811 811 811 810 810 810 809 809 809 808 808 808 808 807 807 807 806
812 812 812 812 812 812 813 813 813 813 813 813 813 813 814 814 814 814 814 814 814 814 815 815 815 814 814 813 813 813 814 814 814 814 815 815 815 815 815 815 815 816 816 816 816 816 816 817 816 817 817 817 817 817 816 815 815 814 813 813 813 813 813 812 812 811 811 811 811 811 810 810 810 809 808 808 807 807 807 807 807 806 806 806 805 805
811 811 811 811 811 811 811 812 812 812 812 812 812 812 812 813 813 813 813 813 813 813 814 814 814 813 813 812 812 813 813 813 813 814 814 814 814 814 814 815 815 815 815 815 815 815 815 815 816 816 816 816 816 815 815 815 814 813 812 812 812 812 811 811 811 811 810 810 810 810 810 810 809 808 808 807 806 806 806 806 805 805 805 805 804 804
810 810 810 810 810 810 810 811 811 811 811 811 811 811 811 811 812 812 812 812 812 812 813 813 813 812 812 812 812 812 812 812 812 813 813 813 813 813 813 814 814 814 814 814 814 815 815 815 815 815 815 815 815 814 813 813 813 812 811 811 811 811 810 810 810 810 810 810 810 809 809 809 808 807 807 806 805 805 805 805 805 804 804 803 803 802
810 809 809 810 810 810 810 810 810 810 810 810 810 810 810 810 810 811 811 811 811 811 812 812 811 811 811 811 811 811 811 811 811 812 812 812 813 813 813 813 813 813 813 814 814 814 814 814 814 814 814 814 813 813 812 811 811 811 811 810 810 810 809 809 809 809 809 809 809 809 809 808 808 807 806 805 804 804 803 803 803 803 803 802 802 801
809 809 809 809 809 808 808 809 809 809 809 809 809 809 809 810 810 810 810 810 810 810 810 810 810 810 810 810 810 810 811 811 811 811 811 811 812 812 812 812 812 813 813 813 813 813 813 813 812 812 812 812 812 811 810 810 810 810 810 810 810 809 808 808 808 808 808 808 808 808 808 808 807 806 806 805 803 802 802 802 802 802 801 801 801 800
808 808 808 808 808 807 807 808 808 808 808 808 808 808 808 809 809 809 809 809 809 809 809 810 810 810 810 810 810 810 810 810 810 810 810 811 811 811 812 812 812 812 812 812 812 812 812 811 811 810 810 810 810 810 809 808 808 808 809 808 808 808 807 807 807 807 807 807 807 807 806 806 806 805 805 804 803 801 800 800 800 800 800 800 800 799
807 807 807 807 807 807 807 807 807 807 807 807 807 807 807 807 808 808 808 808 808 808 808 809 809 809 809 809 809 809 809 809 810 810 810 810 810 811 811 811 811 812 812 812 812 811 811 810 810 809 808 808 808 808 808 807 807 807 807 807 807 807 807 806 806 806 806 806 805 805 805 805 805 805 804 803 802 801 799 799 798 798 799 798 798 797
Wind_Speed
10 9 8 7 7 6 6 5 5 5 5 5 7 9 8 8 8 8 7 6 5 4 3 3 4 5 5 5 4 4 5 5 6 6 6 5 5 4 3 2 2 1 1 1 1 2 2 3 3 3 3 3 3 3 3 2 2 1 1 1 1 2 2 2 1 1 0 0 0 1 2 2 2 2 2 2 2 2 2 3 3 3 3 4 4 4
10 9 8 7 7 7 7 6 5 5 5 4 6 9 9 9 9 8 7 6 5 4 2 3 5 6 6 6 6 6 6 6 6 6 5 5 4 3 2 1 1 1 1 1 2 3 4 4 5 5 5 5 5 5 5 4 4 3 3 2 2 2 1 1 1 1 1 2 2 2 3 3 3 2 2 2 1 2 2 3 3 4 4 4 4 4
12 11 10 8 7 7 6 5 5 4 5 6 8 9 10 9 9 8 7 7 6 5 3 3 4 5 5 5 6 6 6 6 5 5 5 4 3 2 1 1 0 1 2 2 3 4 5 6 6 7 7 7 7 7 6 5 5 5 5 4 4 4 3 3 3 3 3 3 3 4 4 4 4 3 3 2 2 3 3 3 3 4 4 4 5 5
15 14 13 11 9 7 6 5 4 4 7 9 10 11 11 10 9 8 8 7 7 6 4 3 2 3 3 3 4 4 5 5 5 4 4 3 2 1 1 1 1 2 3 4 5 6 6 7 7 7 8 8 8 7 7 7 6 6 6 6 6 5 5 5 4 4 5 5 5 5 5 5 5 4 4 4 3 3 4 4 4 4 5 5 5 6
15 15 13 11 9 7 6 4 5 8 10 11 11 11 11 10 10 9 8 7 7 6 5 3 2 1 1 1 1 3 4 4 4 4 3 3 2 2 2 2 3 4 5 6 7 7 7 7 7 7 7 7 7 7 7 7 7 7 7 7 7 7 6 6 6 5 5 5 5 5 5 5 5 5 5 5 5 4 5 5 5 5 6 6 6 6
15 13 12 10 8 7 6 7 9 11 11 11 11 11 11 11 10 9 8 8 7 6 5 3 2 1 1 0 1 2 3 3 3 3 2 2 2 3 3 4 5 6 7 7 7 7 7 7 7 7 7 7 7 7 7 7 7 7 7 7 7 7 7 6 6 5 5 5 5 5 5 5 5 5 5 5 5 5 5 6 6 6 6 6 7 7
14 13 11 9 7 6 8 11 12 12 12 11 11 11 11 11 10 10 9 8 7 6 5 4 3 2 1 1 2 2 3 2 2 2 2 2 3 3 4 5 6 7 7 7 7 7 7 7 7 6 6 6 6 6 7 7 8 7 7 7 7 7 7 6 6 5 5 5 5 5 5 5 5 5 5 6 6 6 6 6 6 7 7 7 7 7
14 13 11 9 8 9 11 12 12 11 11 10 10 11 10 10 10 9 8 7 7 6 5 4 3 3 2 2 2 3 3 2 2 2 3 3 4 5 6 7 8 8 7 6 6 6 6 6 6 6 6 5 6 7 7 8 8 7 7 7 6 6 6 5 5 5 5 5 5 6 5 5 5 5 6 6 6 6 7 7 7 7 7 7 7 7
15 14 12 11 11 12 12 12 11 10 9 9 9 10 10 10 9 9 8 7 6 6 6 5 5 4 4 3 3 3 3 3 3 4 5 5 6 8 9 9 9 8 6 5 4 5 5 6 6 5 5 5 6 7 7 7 6 5 5 5 5 5 5 5 5 5 5 6 6 6 6 6 6 6 6 6 6 6 7 7 7 7 7 7 7 6
15 15 13 12 13 13 12 11 11 10 9 9 9 10 10 11 10 9 8 7 7 6 7 6 6 5 5 4 4 4 4 5 5 6 7 7 8 9 9 9 8 6 4 4 5 6 7 6 5 5 4 5 6 6 6 5 4 3 3 3 3 3 4 4 5 5 6 6 6 7 7 7 7 6 6 6 6 6 6 6 6 6 6 6 6 5
15 14 13 13 13 13 12 12 11 11 10 9 10 10 10 10 10 10 10 9 8 7 7 7 7 6 5 5 5 6 6 7 7 8 8 8 8 8 8 8 7 6 5 6 7 8 8 7 5 4 4 4 5 5 5 5 4 4 3 2 2 2 2 3 3 4 4 5 5 6 6 6 7 7 6 6 6 6 6 6 6 5 5 5 5 5
15 13 12 12 12 12 12 12 12 11 10 10 9 9 9 9 9 9 9 9 8 7 7 7 7 7 7 6 6 7 8 8 8 8 7 7 8 8 7 7 6 6 6 6 7 7 7 5 4 3 3 4 4 5 5 5 5 5 4 3 2 2 2 3 3 3 3 4 4 4 4 5 5 6 6 6 6 6 6 5 5 5 5 5 5 4
14 13 11 12 12 12 12 12 12 11 10 9 8 8 8 8 8 9 9 9 8 7 6 5 6 6 7 7 7 7 7 7 7 7 7 7 7 7 7 6 6 6 5 5 5 5 5 4 3 2 2 3 4 5 5 6 7 6 6 4 3 2 2 3 3 4 4 4 4 3 3 4 4 5 5 5 5 5 5 5 5 5 5 5 5 4
14 13 12 12 12 12 12 12 11 10 9 9 9 9 9 9 8 8 8 7 7 6 5 4 4 5 6 6 6 6 6 6 6 6 6 6 7 7 7 6 5 4 4 4 4 4 4 3 2 2 3 4 5 5 6 7 7 8 7 7 5 4 4 4 4 4 4 4 4 4 3 4 4 4 4 4 5 5 5 5 5 5 5 5 5 4
14 13 12 11 11 11 11 11 10 9 9 10 9 9 8 8 7 7 6 6 5 5 5 5 4 5 5 5 5 5 5 5 6 6 6 6 7 7 6 5 4 3 3 4 4 4 4 3 3 3 4 5 5 6 6 7 7 8 8 8 7 6 5 5 5 5 5 5 5 4 4 4 4 4 4 5 5 5 5 5 5 5 5 5 5 5
15 14 12 12 12 11 10 10 10 10 10 10 9 8 7 6 6 6 6 6 6 6 5 5 4 4 4 5 5 4 4 5 6 6 7 7 6 5 5 4 3 3 3 4 4 4 4 3 4 4 4 5 5 5 6 7 7 7 7 8 8 7 6 6 6 5 5 5 5 5 5 5 5 5 5 5 5 5 5 5 5 5 5 5 5 5
13 12 12 12 12 11 11 10 10 10 10 9 8 7 6 6 6 6 6 7 7 6 6 5 4 3 3 3 4 3 3 4 6 8 8 7 6 4 4 3 3 2 3 4 5 5 4 4 4 5 5 5 5 6 6 6 6 6 7 8 8 7 6 6 6 5 5 6 6 6 6 6 6 5 6 6 6 6 6 6 6 6 6 6 6 6
12 11 12 11 11 11 11 10 10 10 9 8 8 7 6 6 6 6 6 6 6 5 4 4 4 3 3 3 3 3 4 5 7 9 9 7 5 3 3 3 3 3 3 4 5 5 5 5 6 6 6 5 5 6 6 6 6 6 7 8 8 7 6 5 5 5 5 5 6 6 6 7 7 6 6 6 6 7 7 7 6 6 6 6 6 6
11 11 11 11 11 12 11 11 10 9 9 8 8 7 7 6 6 6 5 5 5 4 4 4 4 4 4 3 3 4 6 7 8 10 10 7 4 2 3 3 3 3 4 4 5 5 5 6 6 6 6 5 4 4 5 5 6 7 8 8 7 5 5 5 4 4 4 4 5 5 6 7 7 7 7 7 7 7 7 7 7 7 7 7 7 7
11 10 10 10 11 12 11 11 10 9 9 8 8 8 8 7 6 6 6 5 5 5 4 4 4 5 5 5 5 5 7 8 9 10 9 7 3 2 3 4 4 4 4 4 4 5 6 6 7 7 6 4 3 3 4 5 6 7 8 7 5 4 3 4 4 4 4 4 4 5 5 6 6 7 7 7 7 7 7 8 8 8 7 7 7 7
10 10 9 9 10 11 11 10 10 9 9 9 8 8 8 8 7 7 6 6 5 5 5 5 5 5 6 6 6 6 7 8 8 8 7 5 3 2 4 5 6 6 6 5 5 5 6 7 7 6 5 3 2 3 3 4 6 6 6 5 4 3 2 3 3 4 4 4 4 5 5 5 6 6 7 7 7 7 7 8 8 8 8 8 8 8
9 9 9 8 8 9 10 10 10 9 9 8 8 8 8 8 7 7 7 6 6 5 5 5 5 6 8 8 8 7 6 7 8 8 6 5 3 3 4 6 7 7 7 6 6 7 8 8 7 5 4 2 1 2 3 4 5 5 5 4 3 3 3 3 3 4 4 4 4 4 4 5 5 5 6 6 7 7 7 8 8 8 8 8 8 8
8 8 8 7 7 7 8 9 9 9 9 8 8 7 7 7 6 6 6 6 6 6 6 6 7 8 8 7 5 4 4 5 6 6 5 4 3 3 5 7 8 8 8 9 9 9 9 8 6 4 2 0 1 3 4 5 6 6 6 6 5 4 4 4 4 4 5 5 5 5 5 5 5 5 5 6 6 6 7 7 8 8 8 8 9 9
7 7 7 6 6 6 7 7 8 8 8 8 7 7 7 6 6 6 6 6 6 6 6 6 6 6 6 5 4 3 3 4 4 5 5 4 4 4 6 8 9 9 10 10 11 11 9 6 3 1 1 1 3 4 5 6 7 7 7 7 7 6 6 6 6 6 6 6 6 6 6 6 6 6 6 6 6 6 7 7 7 8 8 9 9 9
5 5 5 5 5 5 6 6 6 7 7 6 6 6 6 6 6 6 6 6 6 5 5 5 6 6 5 4 4 3 2 3 4 4 5 4 4 5 6 8 9 10 11 12 12 11 8 4 1 1 2 3 4 4 5 5 6 6 7 7 7 7 7 7 7 7 7 7 7 6 6 7 7 7 7 7 7 7 7 8 8 8 8 9 9 10
4 4 4 4 4 4 4 5 5 6 6 5 5 5 5 5 6 6 6 6 6 5 5 6 6 6 6 5 4 4 3 2 3 4 5 4 4 5 6 7 9 10 12 13 12 9 6 3 3 4 4 3 3 3 3 4 4 5 5 6 7 7 7 7 7 7 7 7 7 7 7 7 7 7 7 8 8 8 8 9 9 9 9 10 10 10
3 4 4 4 4 4 4 4 4 5 5 4 5 5 6 6 6 6 6 6 6 6 6 5 5 6 6 5 4 3 3 3 3 4 5 5 5 4 5 7 9 10 12 13 11 7 3 4 5 5 4 3 2 2 3 4 5 5 5 5 6 6 6 7 6 6 7 7 7 7 7 7 7 7 7 8 8 9 9 9 10 10 10 10 11 12
5 5 6 6 6 6 6 6 5 5 4 4 4 4 6 6 6 6 6 6 6 7 7 6 5 5 4 3 3 4 4 4 4 4 5 5 4 4 5 6 9 10 12 12 9 4 3 5 5 4 4 2 1 2 4 6 7 7 6 5 5 5 5 5 6 6 6 6 7 7 7 7 7 7 8 8 8 9 9 9 10 10 10 11 12 13
6 6 7 7 8 8 8 8 7 6 6 5 4 4 5 6 7 7 7 6 6 7 7 7 6 5 4 4 5 5 5 5 5 5 4 4 4 4 5 6 8 10 11 10 6 3 4 4 4 4 3 1 1 4 6 8 8 7 6 4 4 4 4 5 6 6 6 7 7 7 7 7 8 8 8 8 8 8 9 9 9 10 11 12 13 14
7 7 8 8 8 9 9 8 8 7 7 6 5 5 6 7 8 8 8 7 7 8 8 9 8 6 5 4 4 4 4 4 4 4 3 3 3 4 5 5 7 9 10 8 5 3 2 3 3 3 2 2 3 6 8 8 6 4 3 3 3 4 5 6 6 7 7 7 7 7 7 7 8 8 8 8 8 8 8 8 9 9 11 12 13 14
5 6 6 6 7 7 7 7 7 6 6 5 5 5 7 8 8 9 9 9 9 9 9 9 9 7 5 4 2 1 2 2 3 2 2 3 3 4 5 5 6 7 8 7 5 3 1 1 2 3 3 5 8 10 9 6 3 2 2 2 3 4 5 6 7 8 9 9 9 8 7 7 8 8 8 8 8 8 8 8 8 9 10 11 12 13
4 4 4 5 5 5 5 5 5 5 6 6 6 6 6 7 7 8 9 9 10 10 10 10 10 8 7 6 4 2 2 1 2 3 3 3 3 5 5 4 4 5 7 6 5 2 1 3 3 5 8 11 13 11 6 3 1 2 3 4 4 5 6 7 9 10 10 10 10 8 7 7 7 7 7 7 7 7 7 7 7 8 9 10 11 12
4 4 4 5 5 5 6 6 6 7 7 7 7 6 5 6 6 7 7 8 9 10 10 11 10 10 9 9 8 7 4 3 4 4 4 3 4 4 5 5 4 5 6 6 5 4 3 4 5 8 13 16 14 10 5 2 2 3 5 6 7 7 8 9 10 10 11 10 9 8 7 6 5 5 6 6 6 7 7 7 7 8 8 10 11 12
5 6 6 6 7 7 7 7 8 8 8 8 7 6 6 6 7 7 6 7 8 9 10 11 11 11 10 10 10 10 8 6 6 6 5 4 4 5 5 5 5 5 5 5 5 5 5 5 7 10 14 17 15 11 6 4 3 5 6 8 9 9 9 9 9 9 9 8 7 6 6 5 5 5 6 6 6 6 6 7 7 8 8 9 10 11
7 7 8 8 8 8 9 9 9 8 8 8 7 7 7 8 8 7 6 6 6 8 9 10 11 12 12 11 11 10 9 8 7 7 6 5 5 5 6 6 6 6 5 5 5 4 5 7 9 10 12 14 14 12 7 6 5 6 6 7 8 8 8 8 8 8 7 7 6 6 6 6 6 6 6 7 6 6 7 8 8 8 8 8 9 10
9 9 10 10 10 10 10 9 8 8 7 7 7 7 8 8 8 7 6 5 5 6 8 9 10 11 12 12 12 11 9 9 9 9 8 8 7 7 6 7 7 7 6 6 6 6 6 8 9 10 10 10 10 10 8 8 7 6 6 6 5 5 5 6 6 7 7 7 7 6 6 6 6 6 6 6 6 6 7 7 7 8 8 8 8 9
10 10 11 11 11 10 10 9 8 7 7 7 7 8 8 9 8 8 6 5 5 5 6 8 9 10 11 12 12 12 11 12 12 12 11 11 11 10 9 8 9 9 8 7 7 8 8 8 9 10 9 8 7 7 9 11 11 9 9 7 6 5 5 5 6 7 8 8 7 7 7 7 7 7 6 6 6 7 7 7 7 8 8 8 8 9
11 11 11 11 10 10 9 9 8 7 7 7 8 8 8 8 8 7 7 6 6 6 6 7 8 9 10 11 12 12 12 13 14 14 14 14 14 13 12 11 12 12 11 10 9 9 8 7 7 7 7 8 9 10 12 14 14 13 12 10 8 7 7 7 7 7 7 7 7 7 7 7 7 7 7 7 7 8 8 9 9 9 9 10 10 10
11 11 11 10 10 9 9 8 8 7 7 8 8 8 8 8 8 7 7 7 7 7 7 7 8 8 9 10 11 11 12 13 14 14 15 15 16 16 15 14 14 14 13 12 11 10 9 8 7 7 7 9 10 12 13 13 13 14 14 13 11 9 8 7 7 7 7 7 8 8 8 8 8 8 8 8 9 9 10 10 10 11 11 12 12 12
12 11 11 10 9 9 8 8 7 7 7 8 8 8 8 8 8 8 8 8 8 9 9 9 9 9 10 10 11 11 11 12 13 13 14 14 15 15 15 15 15 14 14 13 12 11 9 9 9 9 9 9 10 11 12 12 12 13 14 13 12 11 10 8 7 7 7 8 9 9 9 9 9 9 9 9 10 10 10 11 11 11 11 11 12 12
12 12 11 10 9 8 7 7 7 7 7 8 8 8 8 8 8 9 9 9 10 10 11 11 11 11 12 12 12 12 12 11 11 12 12 12 13 13 14 14 13 13 12 12 12 12 10 10 10 10 10 11 11 11 12 13 12 12 11 11 13 14 12 10 8 7 8 8 9 10 10 11 11 11 11 11 10 10 10 10 11 10 10 10 10 11
13 13 12 10 9 8 8 8 8 8 9 9 9 9 9 9 9 10 10 11 11 12 12 12 12 13 13 13 13 12 11 11 10 10 10 10 11 11 11 11 11 11 10 11 11 11 11 11 11 11 11 11 11 12 12 13 13 12 11 12 14 15 13 10 8 8 9 10 10 10 11 12 12 13 12 12 12 11 11 11 11 11 11 11 10 10
13 13 12 11 10 9 9 9 9 10 10 10 10 10 10 10 11 11 12 12 13 13 13 13 13 13 14 14 13 11 10 9 9 9 9 9 9 9 9 9 9 9 9 10 10 11 11 11 11 12 12 12 12 13 13 14 14 14 13 13 13 13 11 11 10 10 10 10 11 11 11 12 13 13 13 13 13 13 12 12 12 12 11 11 11 11
12 12 12 11 11 11 11 11 11 11 12 12 12 12 12 12 12 13 13 13 14 14 13 13 12 13 13 13 12 11 9 8 8 8 9 9 9 9 9 8 8 8 9 9 10 10 10 11 12 12 11 11 12 13 14 14 15 15 14 13 12 12 12 13 14 14 13 12 11 11 11 12 12 13 14 14 14 14 14 14 13 13 13 12 12 12
10 11 12 12 12 12 12 12 13 13 13 14 14 14 13 13 13 13 14 14 14 13 13 12 11 11 11 13 12 11 10 8 7 7 7 8 9 9 9 9 8 8 9 9 10 10 10 11 11 10 9 9 11 13 14 15 15 16 16 14 13 14 14 15 15 14 14 13 12 11 11 11 13 14 16 16 16 16 15 15 15 15 15 14 14 13
9 10 11 12 13 13 14 14 14 14 15 15 15 15 15 14 14 14 14 14 14 13 12 12 11 11 11 11 12 11 11 9 7 5 5 6 8 8 9 9 9 8 8 9 9 9 10 10 10 9 9 10 12 14 15 15 15 16 17 16 15 15 16 15 15 14 13 13 12 12 12 12 14 15 17 17 18 17 17 16 16 16 16 15 15 14
7 8 9 10 12 13 13 14 14 15 15 16 16 15 14 14 13 14 14 14 14 13 13 13 13 13 13 13 12 12 12 11 9 7 5 5 6 7 8 8 8 8 8 8 9 9 10 10 9 10 10 11 13 14 14 15 15 16 17 17 17 17 17 17 16 14 13 13 13 13 13 14 15 16 17 18 18 18 18 17 16 16 15 15 15 15
7 8 8 8 10 11 12 12 13 14 14 15 14 14 13 12 12 13 13 14 13 13 14 14 14 14 14 14 14 14 13 13 12 10 7 6 6 7 7 8 8 8 8 8 9 10 11 11 11 12 13 14 14 15 15 16 17 17 18 18 17 18 18 18 17 15 14 14 13 13 13 14 15 16 17 18 19 19 18 17 16 15 15 15 15 15
9 8 8 8 9 10 11 11 12 12 13 13 13 12 11 10 11 12 12 13 13 14 15 15 15 15 15 15 15 14 14 14 13 12 9 7 7 7 8 8 8 9 9 10 10 11 12 13 14 15 16 17 17 17 17 19 19 19 19 18 18 18 19 18 17 16 15 15 14 13 13 13 14 16 17 18 19 19 18 18 17 16 15 14 14 14
11 10 10 10 10 11 11 11 12 12 13 13 12 11 10 10 10 11 12 13 14 14 15 16 16 15 15 15 15 15 14 14 14 13 11 9 8 8 8 8 9 9 9 10 10 11 12 13 15 16 17 18 19 19 20 21 21 20 19 19 19 18 19 19 17 16 15 15 14 14 14 14 15 15 16 17 18 19 19 18 17 16 15 14 14 15
13 12 12 12 12 12 12 12 12 12 13 12 12 12 11 11 11 11 12 13 14 15 16 16 16 16 16 16 16 15 15 14 14 13 12 10 9 9 9 9 9 9 9 9 9 9 9 10 11 12 15 16 16 17 19 20 20 19 19 19 18 17 17 18 17 16 15 15 15 15 15 15 15 15 15 15 16 18 19 19 18 18 17 16 16 16
Wind_Direction
180 179 183 190 192 186 183 212 244 262 262 228 188 171 160 150 144 142 142 141 143 148 148 133 126 123 122 119 117 116 118 120 122 123 124 126 129 133 132 130 121 106 64 15 350 340 334 329 324 315 307 299 297 298 296 288 280 282 309 335 351 1 7 14 11 11 21 5 216 199 203 212 228 245 244 243 257 279 290 297 296 293 298 306 311 311
171 168 168 177 184 186 189 218 247 257 240 205 172 158 151 147 144 142 142 143 148 154 146 110 102 104 107 110 113 117 122 124 127 130 134 137 141 143 142 140 119 43 7 349 341 337 332 329 326 322 317 312 309 306 301 292 280 269 265 262 266 276 282 281 282 262 235 241 237 225 216 222 233 240 237 236 256 288 299 300 296 296 300 304 308 310
165 164 165 169 178 189 201 235 257 247 206 178 160 152 149 147 143 143 146 149 154 158 154 120 101 99 101 107 117 127 133 137 140 143 147 152 154 155 153 151 9 348 341 331 331 330 328 326 325 324 322 320 318 314 309 301 290 278 268 260 255 253 252 251 250 248 241 240 240 237 232 234 237 239 244 252 266 280 290 298 300 298 300 304 306 307
165 166 169 171 178 193 216 243 235 187 167 160 154 151 149 146 144 144 147 151 155 159 157 144 118 99 92 99 117 135 146 155 161 165 166 171 174 181 207 251 291 307 315 318 320 322 323 322 323 323 322 321 319 317 313 306 298 287 277 268 260 254 251 247 248 248 246 247 249 249 247 246 245 248 255 261 268 276 284 292 298 302 304 304 305 307
168 169 171 175 183 198 220 210 171 154 149 149 150 149 148 146 146 146 147 151 155 158 159 158 150 122 71 74 119 144 161 171 180 186 195 205 219 237 259 281 293 302 309 314 317 319 319 320 320 320 319 318 316 314 310 305 299 292 283 275 267 260 254 250 249 251 254 255 258 260 262 260 257 256 258 260 264 269 277 285 292 297 300 300 301 303
169 171 175 182 191 199 197 167 152 146 143 143 145 147 148 148 149 150 152 154 158 163 167 172 181 199 243 246 166 162 171 181 193 206 223 242 258 272 285 296 301 306 311 314 315 316 316 317 317 317 316 314 311 307 303 298 293 288 283 278 271 264 258 252 250 251 255 258 260 263 267 267 265 263 262 262 265 268 274 282 289 293 297 298 299 299
166 172 178 186 191 183 162 154 148 144 141 142 143 146 149 152 155 158 159 162 166 170 176 183 191 205 210 202 181 174 181 193 209 230 247 259 272 283 288 296 300 303 306 309 311 314 316 317 319 319 317 313 307 301 295 289 285 282 278 274 271 266 260 253 249 250 254 257 258 260 263 265 266 266 266 267 269 272 276 281 286 291 296 297 298 298
164 171 178 180 174 163 155 152 149 146 145 147 150 152 153 157 161 164 166 169 174 177 180 182 186 190 188 182 177 182 194 210 226 242 253 262 270 277 282 288 292 295 300 306 311 315 317 321 324 324 320 313 303 296 292 290 286 281 275 270 268 265 260 253 249 249 252 253 254 255 258 261 263 266 268 271 274 277 280 281 285 290 293 296 298 299
165 167 172 171 165 160 157 156 154 152 152 160 165 166 166 167 168 169 170 173 175 177 177 176 177 180 184 186 190 201 216 231 243 254 264 274 281 285 287 288 290 293 300 307 310 311 314 320 326 327 322 310 301 298 300 301 300 294 283 273 268 265 258 252 246 244 247 247 248 249 251 255 259 263 268 271 275 278 282 285 288 291 292 295 297 296
168 166 165 165 163 160 158 159 159 157 159 168 174 176 175 176 176 176 176 175 175 176 177 178 178 180 189 204 219 233 244 253 260 269 278 287 293 295 294 292 291 292 296 294 293 297 305 312 319 322 315 304 302 307 317 329 337 335 319 300 288 281 270 260 252 246 245 244 246 248 249 252 255 259 264 270 274 278 281 286 288 290 290 293 294 292
162 162 160 160 161 161 159 159 160 163 166 172 175 175 176 176 178 178 178 175 175 177 181 186 190 195 206 225 244 256 264 269 272 277 285 293 299 301 298 293 286 280 279 281 289 298 304 305 307 307 300 300 309 322 337 356 9 13 7 358 348 337 325 308 288 272 262 257 256 255 254 255 258 262 267 272 275 278 280 283 284 285 286 288 289 289
154 156 156 159 161 162 160 160 162 167 174 176 174 171 171 172 173 172 169 167 169 175 184 195 206 215 225 239 253 263 270 273 276 279 287 297 304 306 302 294 284 277 278 288 301 309 309 303 295 290 294 306 322 336 344 353 0 5 2 356 352 346 341 335 325 314 303 292 283 276 271 268 269 271 273 274 275 276 277 277 278 279 281 283 284 284
152 154 156 158 160 162 162 162 165 171 178 180 177 170 166 169 170 166 162 162 165 173 183 200 218 232 241 248 254 260 265 269 273 279 288 303 312 313 308 298 288 285 290 306 320 324 318 310 301 298 310 329 339 341 340 343 346 347 344 334 317 298 296 307 311 310 308 304 299 295 290 285 281 278 275 275 273 273 272 272 274 275 276 277 278 279
154 156 157 158 161 164 167 168 169 172 177 180 179 176 173 174 175 173 168 167 172 182 194 208 233 253 258 258 256 254 255 261 268 277 291 312 320 319 314 304 295 296 311 333 341 339 331 324 324 329 337 341 342 340 338 337 338 338 335 329 316 297 285 285 287 290 291 292 291 288 283 284 281 277 275 273 273 271 271 270 271 271 271 269 270 271
158 159 159 160 164 168 172 175 176 176 176 176 177 177 177 179 183 187 185 183 190 203 215 224 239 254 261 258 252 246 247 258 270 282 299 321 329 325 316 307 300 304 328 350 354 351 342 338 336 338 339 340 341 338 331 328 328 328 325 322 316 306 292 283 279 278 278 279 279 276 270 272 274 275 273 272 271 269 269 268 268 268 268 266 266 267
162 164 162 165 168 172 176 179 177 174 172 172 173 175 175 178 187 197 200 202 210 222 231 239 242 243 245 247 244 241 249 270 287 299 311 331 340 333 317 307 301 309 338 356 360 356 350 344 340 336 335 337 340 334 320 316 316 317 315 315 313 307 296 282 276 274 274 273 273 271 269 266 265 268 271 270 269 268 267 267 267 267 267 266 266 267
165 168 170 170 170 172 174 175 174 172 171 170 171 174 177 182 191 200 206 213 222 231 239 242 241 232 221 224 232 247 268 292 304 311 319 339 348 339 321 310 308 320 342 355 357 354 348 344 339 334 333 336 336 328 316 314 313 312 311 312 312 308 299 287 277 270 269 270 270 270 269 266 262 262 266 268 268 267 267 266 266 267 266 266 266 267
168 172 174 173 171 170 171 172 172 174 175 174 176 181 188 194 201 206 209 216 221 226 231 231 230 229 225 209 221 259 295 307 312 316 321 337 355 357 325 321 323 331 341 347 349 347 343 342 339 335 331 328 325 321 317 316 314 311 308 311 313 314 310 301 290 280 272 267 266 267 268 269 267 265 264 264 266 267 266 266 266 266 266 266 266 266
170 174 176 175 173 172 172 173 175 178 181 183 186 189 190 197 203 207 208 214 216 218 221 221 226 234 240 234 238 266 294 304 309 313 319 332 3 33 345 341 341 338 338 340 342 341 339 340 339 335 328 320 317 319 321 318 312 308 310 314 319 325 330 327 319 309 299 288 276 271 270 270 270 268 266 263 263 264 266 266 266 266 266 267 266 266
172 173 174 175 175 174 174 178 183 187 190 195 197 195 192 195 198 199 201 205 211 219 230 231 234 242 252 255 261 275 287 297 305 311 315 325 354 35 4 354 348 344 340 342 342 340 338 340 339 334 324 317 322 330 323 314 309 310 315 319 325 335 344 343 340 337 331 323 308 294 285 279 275 273 271 269 264 262 264 265 266 266 267 267 266 265
174 172 175 178 179 178 179 183 188 193 197 202 204 201 198 198 198 199 204 208 213 221 231 237 243 253 263 264 269 278 286 293 299 304 306 309 323 3 4 355 351 349 349 351 349 344 342 341 338 332 322 316 330 336 322 316 318 324 328 328 330 337 347 349 347 345 340 332 322 311 300 292 285 281 277 275 270 266 265 266 267 266 266 266 266 265
177 175 177 180 184 187 188 189 191 193 199 204 206 204 203 204 204 207 215 220 223 228 237 246 257 266 272 274 276 280 282 285 288 291 291 288 295 324 352 349 347 348 352 354 354 350 346 343 338 328 314 309 337 354 345 346 352 356 356 354 352 349 347 345 343 339 336 330 323 314 305 298 292 287 284 280 277 273 270 269 268 267 266 266 265 265
181 180 179 181 186 192 194 194 194 196 201 206 209 213 218 219 219 224 232 237 242 248 258 265 269 271 273 278 284 286 274 269 272 275 275 269 277 311 338 341 341 344 349 350 350 350 349 346 339 323 297 296 63 48 28 21 20 21 19 16 10 3 353 344 337 331 325 321 316 310 303 299 295 291 286 283 279 277 275 273 271 269 267 267 266 267
181 182 182 183 187 192 196 198 200 203 207 213 219 226 233 238 243 247 253 256 256 257 262 265 269 273 275 280 291 294 269 248 252 260 260 261 277 305 328 335 337 340 342 346 348 349 350 352 345 309 234 107 75 54 37 28 22 19 15 11 6 360 353 346 338 330 322 315 307 302 299 299 296 292 288 284 281 277 276 275 273 272 271 270 270 271
183 186 188 192 195 200 204 207 210 214 218 224 230 237 244 250 257 263 266 264 260 259 264 271 279 286 294 304 315 312 282 244 245 252 251 259 279 302 322 331 334 335 337 343 348 350 352 3 37 140 131 103 79 58 40 25 14 6 360 354 350 347 344 340 336 332 327 320 310 301 297 296 295 293 291 288 284 281 279 277 276 275 274 274 274 274
190 192 194 195 198 201 207 212 218 224 232 238 245 250 256 261 265 266 262 257 254 256 261 268 277 286 294 305 310 307 292 265 253 251 250 259 276 297 317 328 331 331 333 341 348 353 4 55 111 127 123 107 85 62 40 19 5 355 348 345 341 338 336 335 335 333 330 327 322 315 307 300 295 293 292 289 287 284 282 279 278 276 276 276 275 275
177 176 175 175 177 180 186 198 213 228 242 254 264 270 271 271 267 261 253 250 249 249 252 259 270 279 284 285 289 293 294 281 259 249 255 263 272 290 313 324 327 328 331 341 350 3 44 105 122 127 127 121 96 45 10 353 344 338 334 335 335 336 335 335 335 334 332 331 329 325 321 314 306 299 294 291 289 286 284 282 281 279 279 278 276 273
171 173 175 178 182 188 195 202 212 225 240 252 265 274 275 273 267 261 258 256 252 248 245 252 262 270 273 270 275 286 293 282 256 244 254 262 267 282 309 321 323 326 332 342 354 22 100 129 138 144 149 145 86 1 347 338 332 326 321 321 325 331 336 337 336 335 334 333 331 329 326 322 317 311 305 299 294 290 287 285 284 282 280 277 274 270
191 197 201 203 206 210 216 221 227 233 237 237 236 246 260 265 265 264 264 262 256 249 245 247 253 261 267 273 280 284 283 267 247 240 252 257 264 281 307 318 321 326 336 345 1 57 117 144 159 168 172 181 328 339 336 331 325 321 318 318 324 332 339 339 337 333 332 331 329 327 325 324 321 318 314 309 304 298 292 290 287 284 280 276 273 271
207 212 215 218 221 225 229 232 234 236 238 236 231 234 248 257 261 263 265 262 257 251 247 247 249 257 267 276 282 280 268 241 229 237 257 259 263 282 305 314 319 328 341 351 1 26 93 157 180 192 201 261 312 325 328 326 324 321 323 326 330 332 331 329 326 323 322 322 324 324 324 323 322 319 317 314 311 306 301 297 293 289 284 280 277 276
211 216 219 224 227 230 231 233 236 242 249 253 250 247 250 256 261 263 263 260 256 251 248 246 247 252 257 258 263 278 272 217 211 245 281 274 270 281 300 309 317 327 340 356 1 353 339 257 214 215 260 293 310 319 326 329 332 340 338 329 321 317 312 308 307 308 310 312 315 317 319 320 320 319 316 314 313 311 309 305 302 297 291 287 285 283
214 221 227 232 237 239 242 247 257 269 278 281 278 270 264 265 267 268 265 260 254 250 247 244 245 246 247 241 237 246 279 229 239 269 288 284 279 284 294 301 310 320 330 347 356 349 289 304 278 264 287 302 314 325 337 346 351 338 322 311 305 300 298 297 298 301 304 306 308 308 309 311 313 314 314 312 311 311 310 310 308 304 298 295 293 293
218 224 229 235 241 247 254 263 272 278 282 283 282 280 279 281 281 279 271 261 252 245 242 241 241 242 244 242 241 243 249 250 256 267 278 278 274 277 286 292 297 306 316 326 330 322 292 292 291 294 302 310 321 335 352 359 330 313 309 306 302 299 297 297 298 300 302 303 304 303 301 300 301 304 306 307 307 307 308 309 309 307 304 302 301 301
221 224 226 230 236 242 251 259 266 271 272 272 273 275 280 286 290 289 280 264 249 240 236 235 237 238 240 242 242 242 243 244 246 251 261 263 263 270 281 287 291 295 303 309 313 310 295 286 292 302 308 315 323 335 347 341 317 304 304 306 307 306 304 304 305 305 305 305 303 301 298 295 295 297 300 302 304 307 311 312 310 308 305 303 303 303
223 225 228 231 237 244 251 258 263 264 262 261 262 267 274 281 286 288 283 268 249 238 234 233 234 236 238 239 239 238 235 235 238 242 248 251 259 271 282 287 291 295 298 301 304 305 298 295 299 305 311 315 320 328 341 338 323 312 308 309 311 313 315 317 319 319 318 315 312 308 303 300 299 301 304 305 307 311 314 313 311 307 303 301 301 301
227 230 233 238 243 250 256 260 261 258 255 253 256 261 267 274 278 281 277 266 250 239 234 234 235 237 240 242 242 238 233 235 240 245 249 255 264 273 283 286 289 293 296 297 298 298 299 301 303 307 310 311 314 319 329 333 330 325 326 327 327 329 332 333 333 332 329 327 324 322 319 316 313 311 310 309 307 306 305 305 304 302 300 299 298 298
233 235 238 242 247 253 258 259 258 254 252 251 254 259 265 269 272 273 270 263 253 244 238 237 238 240 242 245 247 246 243 242 245 250 255 261 267 273 278 280 282 285 287 289 291 294 297 301 304 305 304 301 300 304 313 323 329 336 344 350 354 357 358 351 342 336 334 332 332 332 331 328 324 319 312 306 299 292 288 286 287 288 289 290 291 292
237 240 242 245 249 253 257 258 257 255 255 255 257 260 264 266 266 266 264 261 258 253 248 244 243 244 246 248 250 251 251 250 250 253 257 261 265 269 272 273 275 277 279 281 284 286 289 292 297 300 297 293 290 293 303 313 320 329 339 348 355 358 358 354 346 340 338 337 336 334 331 327 322 315 309 301 295 289 285 282 281 282 284 284 284 282
240 243 245 248 251 254 257 260 262 262 260 259 259 260 261 260 259 257 256 257 257 257 256 254 253 253 254 255 255 256 255 255 254 255 256 259 261 264 267 268 270 272 274 276 277 277 276 275 276 280 287 291 294 297 302 308 314 321 329 335 341 349 355 354 350 347 345 340 334 331 326 323 319 315 312 308 304 300 298 294 291 290 290 288 286 282
244 247 250 253 256 259 262 264 265 263 260 257 256 257 257 254 251 249 250 252 254 256 259 261 263 265 267 267 266 265 262 260 258 256 256 256 257 258 260 263 266 268 270 271 271 269 265 264 264 267 273 281 289 294 298 302 308 316 322 323 324 330 344 351 353 352 347 340 334 330 328 327 326 325 324 321 319 316 313 309 306 304 301 300 298 295
248 251 254 259 262 264 263 262 259 255 252 252 253 254 254 252 249 246 247 248 251 254 258 262 266 270 272 273 273 271 269 265 261 257 255 253 252 253 254 256 259 262 264 265 265 263 260 260 260 262 265 271 279 285 288 293 300 307 311 309 311 317 328 337 345 346 341 336 333 331 330 331 331 331 330 329 327 324 322 320 319 318 316 312 309 307
250 253 257 261 263 262 259 255 252 250 249 251 252 253 253 253 250 248 248 248 250 253 257 261 265 268 271 271 270 269 268 264 260 256 252 249 247 246 247 249 252 255 258 259 259 259 258 258 258 259 262 267 273 279 284 288 294 298 299 300 307 313 318 325 336 338 330 329 331 332 331 330 329 329 328 327 325 324 324 323 322 321 320 317 315 311
254 257 259 260 259 255 252 249 249 249 250 251 252 253 255 255 255 254 254 253 254 256 260 264 268 271 274 273 270 265 260 257 255 253 249 245 242 240 240 242 244 247 250 253 255 256 257 258 257 257 261 266 270 274 280 285 290 292 293 298 304 307 306 313 321 326 325 326 328 329 328 327 326 325 323 322 322 322 322 321 320 320 319 317 315 313
257 257 257 255 253 250 249 248 248 249 250 252 253 255 256 257 257 257 256 257 258 260 263 266 270 273 274 274 274 271 263 254 249 248 247 243 239 236 236 237 239 242 246 250 252 253 256 257 258 260 263 265 268 270 274 279 284 289 293 298 298 293 289 299 311 319 322 325 327 328 329 327 325 322 321 320 320 321 322 322 321 319 319 318 315 312
258 256 254 252 250 250 249 249 249 251 253 255 257 258 259 259 258 257 257 257 259 261 263 265 268 269 270 272 275 277 275 266 255 246 244 242 240 239 238 238 239 242 246 252 255 256 255 256 260 266 270 268 267 267 269 274 279 285 290 295 295 293 293 300 307 312 316 321 325 329 331 329 325 321 319 319 319 320 320 320 318 317 316 315 312 309
262 259 255 253 251 251 251 252 253 255 256 258 260 261 261 259 257 255 254 255 257 258 260 263 263 262 262 267 273 277 278 276 268 253 240 239 242 244 246 246 247 248 250 255 259 261 261 261 264 269 273 271 268 267 266 269 274 280 286 292 295 295 297 299 303 308 313 317 321 326 330 328 323 318 315 314 315 315 315 315 314 313 313 311 309 306
272 268 262 257 254 253 253 254 256 258 259 261 262 263 261 258 254 250 249 249 252 254 257 259 259 259 261 264 269 272 275 278 277 269 250 241 242 246 249 252 255 257 258 260 261 262 264 266 267 266 266 265 265 266 266 267 270 275 281 287 291 292 293 295 300 307 311 312 314 319 323 320 316 312 310 310 310 310 310 310 309 309 308 307 305 304
280 277 272 266 261 258 257 258 259 261 264 266 266 264 260 255 249 246 245 245 247 250 252 254 255 257 261 264 267 270 273 277 279 276 264 253 249 251 252 252 255 259 265 268 269 269 268 269 269 266 263 260 261 264 268 269 270 272 278 283 285 286 288 292 298 305 306 306 309 312 314 311 309 308 308 307 306 305 305 306 306 305 304 303 303 302
280 280 278 274 270 267 265 266 267 268 269 270 269 266 260 251 245 244 245 245 247 248 249 250 252 255 259 263 267 270 272 275 277 276 269 258 252 254 256 255 256 260 265 270 274 276 275 273 270 265 262 259 258 260 265 269 272 275 278 280 281 281 284 289 296 302 303 304 306 307 307 303 302 303 304 302 300 301 302 302 303 302 302 301 301 300
277 278 279 278 276 274 274 275 274 274 273 273 270 267 260 251 245 245 246 248 249 250 249 250 252 255 258 262 266 268 269 271 274 274 270 259 251 250 250 250 253 258 264 268 272 274 274 273 270 266 262 260 259 259 261 266 271 276 278 278 279 281 283 288 295 302 305 305 304 303 300 297 297 298 297 295 295 297 299 300 300 299 300 299 298 297
275 277 277 278 277 278 279 280 279 277 275 273 270 266 260 254 249 248 248 250 251 250 250 251 253 255 258 262 265 267 268 268 269 270 270 261 252 246 243 242 244 247 252 257 262 266 268 272 272 271 268 264 262 260 260 263 267 271 272 275 279 282 284 288 295 302 305 304 301 299 296 294 292 292 290 290 292 295 297 298 298 298 298 298 297 295